When you browse on this site, cookies collect data to enhance your experience and personalize the content and advertising you see.
Visit our Privacy Policy to learn more. By continuing to use the site, you agree to this use of cookies and data.
  • In Hungary
  • List of Countries
  • For 7 days
  • Water Temperature
  • Satellite Maps
  • Weather Map
  • News
  • Weather Widgets
  • user-avatar
    Login

    Hourly Weather Colmar

    Today, 22 March, Friday

    Time Temperature Precipitation Wind Pressure Humidity
    00:00 +6°C° 0 mm 0 mps 755 mmHg 79%
    01:00 +6°C° 0 mm 0 mps 755 mmHg 79%
    02:00 +5°C° 0 mm 0 mps 755 mmHg 78%
    03:00 +5°C° 0 mm 0 mps 755 mmHg 78%
    04:00 +5°C° 0 mm 0 mps 755 mmHg 77%
    05:00 +6°C° 0 mm 1 mps 755 mmHg 76%
    06:00 +6°C° 0 mm 1 mps 755 mmHg 75%
    07:00 +9°C° 0 mm 1 mps 755 mmHg 68%
    08:00 +11°C° 0 mm 1 mps 755 mmHg 60%
    09:00 +14°C° 0 mm 1 mps 755 mmHg 53%
    10:00 +15°C° 0 mm 1 mps 755 mmHg 49%
    11:00 +16°C° 0 mm 0 mps 755 mmHg 45%
    12:00 +18°C° 0 mm 0 mps 754 mmHg 42%
    13:00 +18°C° 0 mm 0 mps 754 mmHg 42%
    14:00 +18°C° 0 mm 0 mps 754 mmHg 41%
    15:00 +20°C° 0 mm 1 mps 753 mmHg 41%
    16:00 +16°C° 0 mm 0 mps 753 mmHg 48%
    17:00 +14°C° 0 mm 0 mps 753 mmHg 56%
    18:00 +12°C° 0 mm 0 mps 753 mmHg 63%
    19:00 +11°C° 0 mm 0 mps 754 mmHg 65%
    20:00 +10°C° 0 mm 0 mps 754 mmHg 68%
    21:00 +11°C° 0 mm 1 mps 754 mmHg 71%
    22:00 +10°C° 0 mm 1 mps 754 mmHg 73%
    23:00 +10°C° 0 mm 1 mps 754 mmHg 75%

    Tomorrow, 23 March, Saturday

    Time Temperature Precipitation Wind Pressure Humidity
    00:00 +9°C° 0 mm 1 mps 754 mmHg 76%
    01:00 +9°C° 0 mm 1 mps 754 mmHg 78%
    02:00 +9°C° 0 mm 1 mps 754 mmHg 79%
    03:00 +8°C° 0 mm 1 mps 754 mmHg 80%
    04:00 +8°C° 0 mm 1 mps 754 mmHg 81%
    05:00 +8°C° 0 mm 1 mps 754 mmHg 82%
    06:00 +8°C° 0 mm 1 mps 754 mmHg 82%
    07:00 +10°C° 0 mm 1 mps 754 mmHg 74%
    08:00 +12°C° 0 mm 0 mps 754 mmHg 66%
    09:00 +14°C° 0 mm 0 mps 754 mmHg 58%
    10:00 +15°C° 0 mm 0 mps 754 mmHg 54%
    11:00 +18°C° 0 mm 1 mps 754 mmHg 51%
    12:00 +19°C° 0 mm 1 mps 754 mmHg 47%
    13:00 +19°C° 0 mm 1 mps 753 mmHg 47%
    14:00 +18°C° 0 mm 2 mps 753 mmHg 48%
    15:00 +18°C° 0 mm 2 mps 752 mmHg 48%
    16:00 +17°C° 0 mm 2 mps 752 mmHg 56%
    17:00 +15°C° 0 mm 2 mps 753 mmHg 64%
    18:00 +13°C° 0 mm 1 mps 753 mmHg 72%
    19:00 +12°C° 0 mm 1 mps 753 mmHg 75%
    20:00 +12°C° 0 mm 1 mps 753 mmHg 78%
    21:00 +11°C° 0 mm 1 mps 753 mmHg 81%
    22:00 +10°C° 0 mm 1 mps 753 mmHg 82%
    23:00 +10°C° 0 mm 1 mps 753 mmHg 83%

    Day after tomorrow, 24 March, Sunday

    Time Temperature Precipitation Wind Pressure Humidity
    00:00 +10°C° 0 mm 1 mps 753 mmHg 84%
    01:00 +9°C° 0 mm 1 mps 753 mmHg 86%
    02:00 +9°C° 0 mm 1 mps 752 mmHg 87%
    03:00 +9°C° 0 mm 1 mps 752 mmHg 89%
    04:00 +9°C° 0 mm 1 mps 752 mmHg 89%
    05:00 +8°C° 0 mm 1 mps 753 mmHg 89%
    06:00 +8°C° 0 mm 1 mps 753 mmHg 89%
    07:00 +10°C° 0 mm 1 mps 753 mmHg 82%
    08:00 +12°C° 0 mm 1 mps 753 mmHg 76%
    09:00 +14°C° 0 mm 2 mps 753 mmHg 69%
    10:00 +15°C° 0 mm 2 mps 753 mmHg 67%
    11:00 +15°C° 0 mm 2 mps 753 mmHg 66%
    12:00 +16°C° 0 mm 2 mps 752 mmHg 65%
    13:00 +16°C° 0 mm 3 mps 752 mmHg 65%
    14:00 +16°C° 0 mm 3 mps 752 mmHg 66%
    15:00 +16°C° 0 mm 3 mps 752 mmHg 66%
    16:00 +14°C° 0.1 mm 3 mps 752 mmHg 72%
    17:00 +13°C° 0.1 mm 3 mps 753 mmHg 77%
    18:00 +11°C° 0.1 mm 3 mps 753 mmHg 82%
    19:00 +10°C° 0 mm 3 mps 754 mmHg 84%
    20:00 +10°C° 0 mm 2 mps 754 mmHg 86%
    21:00 +9°C° 0 mm 2 mps 754 mmHg 89%
    22:00 +8°C° 0 mm 2 mps 754 mmHg 89%
    23:00 +8°C° 0 mm 2 mps 754 mmHg 90%

    25 March, Monday

    Time Temperature Precipitation Wind Pressure Humidity
    00:00 +7°C° 0 mm 2 mps 755 mmHg 90%
    01:00 +7°C° 0 mm 2 mps 755 mmHg 89%
    02:00 +6°C° 0 mm 2 mps 755 mmHg 88%
    03:00 +6°C° 0 mm 2 mps 755 mmHg 87%
    04:00 +6°C° 0 mm 2 mps 755 mmHg 85%
    05:00 +4°C° 0 mm 3 mps 755 mmHg 83%
    06:00 +4°C° 0 mm 3 mps 755 mmHg 82%
    07:00 +5°C° 0 mm 3 mps 755 mmHg 76%
    08:00 +8°C° 0 mm 3 mps 756 mmHg 70%
    09:00 +8°C° 0 mm 4 mps 756 mmHg 64%
    10:00 +10°C° 0 mm 4 mps 756 mmHg 59%
    11:00 +11°C° 0 mm 4 mps 755 mmHg 54%
    12:00 +12°C° 0 mm 4 mps 755 mmHg 49%
    13:00 +12°C° 0 mm 5 mps 755 mmHg 48%
    14:00 +12°C° 0 mm 5 mps 755 mmHg 47%
    15:00 +12°C° 0 mm 5 mps 755 mmHg 46%
    16:00 +10°C° 0 mm 4 mps 755 mmHg 52%
    17:00 +8°C° 0 mm 4 mps 755 mmHg 57%
    18:00 +8°C° 0 mm 3 mps 756 mmHg 63%
    19:00 +7°C° 0 mm 3 mps 756 mmHg 67%
    20:00 +6°C° 0 mm 2 mps 756 mmHg 71%
    21:00 +6°C° 0 mm 2 mps 757 mmHg 75%
    22:00 +5°C° 0 mm 2 mps 757 mmHg 77%
    23:00 +5°C° 0 mm 2 mps 757 mmHg 78%

    26 March, Tuesday

    Time Temperature Precipitation Wind Pressure Humidity
    00:00 +4°C° 0 mm 2 mps 757 mmHg 80%
    01:00 +4°C° 0 mm 2 mps 757 mmHg 82%
    02:00 +4°C° 0 mm 2 mps 757 mmHg 83%
    03:00 +4°C° 0 mm 2 mps 757 mmHg 85%
    04:00 +3°C° 0 mm 2 mps 757 mmHg 86%
    05:00 +3°C° 0 mm 2 mps 757 mmHg 87%
    06:00 +3°C° 0 mm 2 mps 757 mmHg 89%
    07:00 +5°C° 0 mm 2 mps 757 mmHg 79%
    08:00 +7°C° 0 mm 3 mps 757 mmHg 70%
    09:00 +9°C° 0 mm 3 mps 757 mmHg 60%
    10:00 +10°C° 0 mm 4 mps 757 mmHg 57%
    11:00 +11°C° 0 mm 4 mps 757 mmHg 54%
    12:00 +12°C° 0 mm 4 mps 756 mmHg 51%
    13:00 +13°C° 0 mm 4 mps 756 mmHg 51%
    14:00 +13°C° 0 mm 4 mps 756 mmHg 51%
    15:00 +13°C° 0 mm 5 mps 756 mmHg 51%
    16:00 +11°C° 0 mm 4 mps 756 mmHg 57%
    17:00 +10°C° 0 mm 4 mps 756 mmHg 63%
    18:00 +8°C° 0 mm 3 mps 756 mmHg 70%
    19:00 +7°C° 0 mm 3 mps 756 mmHg 74%
    20:00 +6°C° 0 mm 2 mps 757 mmHg 78%
    21:00 +5°C° 0 mm 2 mps 757 mmHg 82%
    22:00 +5°C° 0 mm 2 mps 757 mmHg 83%
    23:00 +5°C° 0 mm 1 mps 757 mmHg 84%

    27 March, Wednesday

    Time Temperature Precipitation Wind Pressure Humidity
    00:00 +5°C° 0 mm 1 mps 757 mmHg 85%
    01:00 +5°C° 0 mm 1 mps 757 mmHg 85%
    02:00 +4°C° 0 mm 1 mps 757 mmHg 85%
    03:00 +4°C° 0 mm 1 mps 757 mmHg 85%
    04:00 +4°C° 0 mm 1 mps 757 mmHg 84%
    05:00 +4°C° 0 mm 1 mps 757 mmHg 82%
    06:00 +4°C° 0 mm 1 mps 757 mmHg 81%
    07:00 +7°C° 0 mm 1 mps 757 mmHg 70%
    08:00 +10°C° 0 mm 1 mps 757 mmHg 60%
    09:00 +12°C° 0 mm 1 mps 757 mmHg 49%
    10:00 +14°C° 0 mm 1 mps 756 mmHg 45%
    11:00 +15°C° 0 mm 1 mps 756 mmHg 41%
    12:00 +17°C° 0 mm 2 mps 756 mmHg 36%
    13:00 +17°C° 0 mm 2 mps 756 mmHg 38%
    14:00 +17°C° 0 mm 2 mps 755 mmHg 39%
    15:00 +17°C° 0 mm 2 mps 755 mmHg 40%
    16:00 +15°C° 0 mm 2 mps 755 mmHg 48%
    17:00 +13°C° 0 mm 2 mps 756 mmHg 56%
    18:00 +10°C° 0 mm 2 mps 756 mmHg 64%
    19:00 +10°C° 0 mm 2 mps 756 mmHg 67%
    20:00 +10°C° 0 mm 1 mps 756 mmHg 70%
    21:00 +9°C° 0 mm 1 mps 756 mmHg 73%
    22:00 +8°C° 0 mm 1 mps 756 mmHg 73%
    23:00 +8°C° 0 mm 1 mps 756 mmHg 74%
    Show more